QPF
0.05 0.05 0.05 0.04 0.05 0.06 0.05 0.03 0.02 0.02 0.02 0.03 0.02 0.01 0.01 0.01 0.01 0.02 0.02 0.02 0.01 0.01 0.01 0.00 0.00 0.00 0.00 0.00 0.00 0.00 0.00 0.00 0.00 0.00 0.00 0.00 0.00 0.00 0.00 0.00 0.00 0.00 0.00
0.03 0.04 0.04 0.05 0.07 0.07 0.06 0.04 0.03 0.03 0.03 0.04 0.03 0.02 0.02 0.02 0.02 0.02 0.02 0.02 0.01 0.01 0.01 0.01 0.00 0.00 0.00 0.00 0.00 0.00 0.00 0.00 0.00 0.00 0.00 0.00 0.00 0.00 0.00 0.00 0.00 0.00 0.00
0.03 0.04 0.05 0.08 0.08 0.08 0.07 0.05 0.05 0.04 0.03 0.03 0.03 0.02 0.01 0.02 0.02 0.01 0.02 0.01 0.01 0.01 0.01 0.01 0.00 0.00 0.00 0.00 0.00 0.00 0.01 0.01 0.01 0.00 0.00 0.00 0.00 0.00 0.00 0.00 0.00 0.00 0.00
0.03 0.05 0.07 0.07 0.07 0.06 0.06 0.07 0.06 0.03 0.02 0.02 0.02 0.02 0.02 0.02 0.02 0.02 0.02 0.02 0.01 0.01 0.01 0.01 0.01 0.01 0.01 0.01 0.01 0.01 0.01 0.02 0.02 0.01 0.01 0.00 0.00 0.00 0.00 0.00 0.00 0.00 0.00
0.03 0.04 0.07 0.09 0.08 0.08 0.08 0.06 0.04 0.03 0.02 0.02 0.02 0.02 0.03 0.03 0.03 0.03 0.03 0.05 0.05 0.04 0.03 0.03 0.02 0.02 0.01 0.01 0.01 0.01 0.01 0.01 0.01 0.01 0.01 0.00 0.00 0.00 0.00 0.00 0.00 0.00 0.00
0.04 0.05 0.06 0.08 0.08 0.06 0.04 0.04 0.05 0.04 0.04 0.03 0.03 0.03 0.04 0.04 0.05 0.05 0.05 0.05 0.05 0.04 0.04 0.03 0.02 0.01 0.01 0.01 0.01 0.00 0.00 0.01 0.00 0.00 0.00 0.00 0.00 0.00 0.00 0.00 0.00 0.00 0.00
0.05 0.06 0.06 0.06 0.06 0.04 0.04 0.04 0.04 0.04 0.04 0.05 0.07 0.06 0.06 0.06 0.06 0.06 0.06 0.06 0.05 0.04 0.03 0.03 0.02 0.01 0.02 0.02 0.01 0.01 0.01 0.01 0.01 0.01 0.01 0.00 0.00 0.00 0.00 0.00 0.00 0.00 0.00
0.07 0.08 0.07 0.07 0.07 0.06 0.06 0.05 0.05 0.06 0.07 0.07 0.08 0.08 0.07 0.07 0.06 0.06 0.06 0.07 0.06 0.04 0.03 0.03 0.03 0.03 0.03 0.03 0.03 0.02 0.02 0.02 0.02 0.02 0.01 0.01 0.00 0.00 0.00 0.00 0.00 0.00 0.00
0.10 0.09 0.09 0.09 0.10 0.12 0.13 0.13 0.11 0.10 0.11 0.10 0.10 0.10 0.09 0.07 0.07 0.06 0.07 0.07 0.06 0.04 0.04 0.03 0.03 0.03 0.03 0.04 0.03 0.03 0.02 0.02 0.03 0.02 0.01 0.01 0.01 0.01 0.01 0.01 0.01 0.01 0.00
0.10 0.12 0.11 0.12 0.13 0.14 0.15 0.16 0.15 0.16 0.17 0.17 0.15 0.13 0.10 0.08 0.07 0.07 0.08 0.07 0.06 0.06 0.06 0.06 0.06 0.06 0.06 0.05 0.04 0.03 0.03 0.03 0.03 0.03 0.03 0.02 0.02 0.02 0.02 0.02 0.02 0.02 0.01
0.12 0.14 0.14 0.14 0.16 0.20 0.23 0.23 0.20 0.19 0.20 0.19 0.15 0.13 0.13 0.12 0.12 0.10 0.08 0.08 0.07 0.08 0.08 0.07 0.07 0.08 0.08 0.07 0.07 0.06 0.06 0.06 0.05 0.05 0.06 0.05 0.05 0.04 0.04 0.04 0.03 0.03 0.02
0.14 0.15 0.16 0.16 0.17 0.19 0.22 0.25 0.23 0.18 0.16 0.15 0.15 0.12 0.11 0.10 0.08 0.06 0.04 0.04 0.05 0.06 0.05 0.05 0.06 0.07 0.07 0.08 0.08 0.08 0.08 0.07 0.06 0.05 0.05 0.04 0.04 0.03 0.03 0.03 0.03 0.02 0.02
0.17 0.18 0.19 0.20 0.20 0.20 0.20 0.18 0.13 0.10 0.08 0.08 0.08 0.07 0.07 0.07 0.06 0.06 0.05 0.05 0.05 0.05 0.04 0.05 0.05 0.05 0.05 0.05 0.05 0.05 0.04 0.03 0.03 0.03 0.02 0.01 0.01 0.01 0.01 0.01 0.01 0.01 0.01
0.11 0.12 0.13 0.13 0.12 0.11 0.10 0.10 0.09 0.08 0.08 0.07 0.07 0.07 0.07 0.07 0.06 0.06 0.06 0.06 0.07 0.07 0.06 0.05 0.05 0.05 0.05 0.04 0.04 0.04 0.04 0.04 0.04 0.03 0.02 0.01 0.01 0.01 0.01 0.01 0.01 0.01 0.01
0.05 0.07 0.09 0.09 0.10 0.10 0.09 0.09 0.08 0.08 0.08 0.07 0.07 0.07 0.07 0.07 0.08 0.10 0.10 0.10 0.10 0.11 0.10 0.10 0.09 0.08 0.08 0.07 0.06 0.06 0.05 0.05 0.04 0.04 0.03 0.02 0.02 0.01 0.01 0.01 0.01 0.01 0.01
0.03 0.03 0.03 0.04 0.04 0.05 0.05 0.06 0.07 0.07 0.07 0.06 0.06 0.06 0.07 0.08 0.08 0.08 0.08 0.07 0.07 0.07 0.06 0.05 0.04 0.03 0.03 0.03 0.03 0.04 0.04 0.04 0.04 0.03 0.03 0.02 0.02 0.02 0.01 0.01 0.01 0.01 0.01
0.04 0.02 0.02 0.03 0.03 0.03 0.03 0.02 0.03 0.03 0.03 0.03 0.03 0.04 0.04 0.06 0.06 0.07 0.07 0.07 0.07 0.07 0.06 0.05 0.03 0.02 0.02 0.02 0.03 0.04 0.05 0.06 0.06 0.07 0.06 0.05 0.04 0.03 0.03 0.03 0.02 0.02 0.02
0.07 0.05 0.04 0.04 0.05 0.05 0.04 0.03 0.04 0.04 0.04 0.04 0.04 0.04 0.04 0.04 0.04 0.04 0.05 0.05 0.05 0.04 0.04 0.04 0.03 0.03 0.03 0.03 0.03 0.03 0.03 0.04 0.05 0.05 0.05 0.04 0.04 0.04 0.04 0.03 0.03 0.03 0.03
0.03 0.03 0.03 0.04 0.04 0.04 0.04 0.03 0.03 0.03 0.03 0.02 0.02 0.03 0.03 0.03 0.03 0.03 0.03 0.03 0.02 0.02 0.02 0.02 0.02 0.02 0.02 0.02 0.01 0.01 0.01 0.01 0.01 0.01 0.01 0.01 0.01 0.01 0.01 0.02 0.02 0.02 0.03
0.01 0.01 0.01 0.01 0.01 0.01 0.01 0.01 0.01 0.01 0.01 0.01 0.01 0.01 0.02 0.02 0.02 0.02 0.02 0.02 0.02 0.02 0.01 0.01 0.00 0.00 0.00 0.00 0.00 0.00 0.00 0.00 0.00 0.00 0.00 0.00 0.00 0.01 0.01 0.02 0.02 0.03 0.03
0.01 0.00 0.00 0.00 0.00 0.00 0.00 0.01 0.01 0.01 0.01 0.01 0.01 0.01 0.02 0.02 0.02 0.02 0.01 0.01 0.01 0.01 0.01 0.00 0.00 0.00 0.00 0.00 0.00 0.00 0.00 0.00 0.00 0.00 0.00 0.01 0.01 0.02 0.03 0.03 0.04 0.04 0.04
0.00 0.00 0.00 0.00 0.00 0.00 0.00 0.00 0.00 0.00 0.01 0.01 0.01 0.01 0.01 0.01 0.01 0.01 0.01 0.01 0.01 0.01 0.00 0.00 0.01 0.01 0.01 0.01 0.01 0.01 0.02 0.02 0.01 0.01 0.02 0.02 0.03 0.03 0.03 0.04 0.04 0.05 0.07
0.01 0.01 0.01 0.00 0.00 0.00 0.00 0.00 0.00 0.00 0.00 0.00 0.00 0.00 0.00 0.00 0.00 0.00 0.00 0.00 0.00 0.00 0.00 0.00 0.01 0.01 0.01 0.01 0.01 0.02 0.02 0.03 0.03 0.03 0.04 0.04 0.04 0.04 0.04 0.05 0.06 0.08 0.10
0.00 0.00 0.00 0.00 0.00 0.00 0.00 0.00 0.00 0.00 0.00 0.00 0.00 0.00 0.00 0.00 0.00 0.00 0.00 0.00 0.00 0.00 0.01 0.01 0.01 0.01 0.01 0.02 0.02 0.02 0.01 0.02 0.02 0.02 0.03 0.03 0.03 0.04 0.05 0.06 0.07 0.08 0.07
0.00 0.00 0.00 0.00 0.00 0.00 0.00 0.00 0.00 0.00 0.00 0.00 0.00 0.00 0.00 0.00 0.00 0.00 0.00 0.00 0.00 0.01 0.01 0.01 0.01 0.01 0.02 0.03 0.03 0.02 0.02 0.01 0.01 0.01 0.02 0.02 0.02 0.03 0.04 0.05 0.05 0.05 0.06
0.00 0.00 0.00 0.00 0.00 0.00 0.00 0.00 0.00 0.00 0.00 0.00 0.00 0.00 0.00 0.00 0.00 0.00 0.00 0.00 0.00 0.01 0.01 0.01 0.01 0.01 0.02 0.03 0.02 0.01 0.01 0.01 0.01 0.02 0.02 0.02 0.01 0.02 0.03 0.03 0.03 0.04 0.04
MSLP
1012.59 1013.16 1013.71 1014.18 1014.56 1014.85 1015.06 1015.24 1015.42 1015.64 1015.91 1016.24 1016.60 1016.98 1017.34 1017.67 1017.94 1018.16 1018.36 1018.54 1018.73 1018.95 1019.19 1019.47 1019.76 1020.03 1020.28 1020.48 1020.63 1020.72 1020.76 1020.76 1020.73 1020.68 1020.59 1020.48 1020.34 1020.15 1019.93 1019.68 1019.41 1019.15 1018.92
1012.50 1013.01 1013.48 1013.91 1014.25 1014.51 1014.72 1014.90 1015.08 1015.30 1015.56 1015.87 1016.22 1016.58 1016.93 1017.24 1017.52 1017.76 1017.97 1018.18 1018.39 1018.62 1018.87 1019.14 1019.41 1019.67 1019.89 1020.08 1020.21 1020.31 1020.36 1020.39 1020.39 1020.37 1020.32 1020.23 1020.11 1019.93 1019.71 1019.44 1019.15 1018.86 1018.59
1012.33 1012.80 1013.23 1013.62 1013.93 1014.18 1014.37 1014.54 1014.72 1014.93 1015.18 1015.47 1015.80 1016.14 1016.48 1016.79 1017.08 1017.33 1017.57 1017.80 1018.04 1018.29 1018.55 1018.82 1019.08 1019.32 1019.53 1019.69 1019.81 1019.89 1019.93 1019.96 1019.96 1019.96 1019.92 1019.86 1019.75 1019.59 1019.38 1019.12 1018.83 1018.52 1018.24
1012.09 1012.54 1012.96 1013.32 1013.62 1013.85 1014.03 1014.19 1014.36 1014.55 1014.79 1015.07 1015.38 1015.70 1016.03 1016.34 1016.63 1016.90 1017.15 1017.41 1017.67 1017.94 1018.21 1018.48 1018.74 1018.97 1019.15 1019.28 1019.36 1019.41 1019.42 1019.42 1019.41 1019.39 1019.36 1019.30 1019.21 1019.08 1018.89 1018.66 1018.39 1018.10 1017.82
1011.79 1012.26 1012.68 1013.03 1013.31 1013.53 1013.70 1013.85 1014.01 1014.19 1014.41 1014.68 1014.97 1015.28 1015.60 1015.90 1016.18 1016.46 1016.72 1016.99 1017.26 1017.54 1017.82 1018.10 1018.34 1018.55 1018.70 1018.80 1018.84 1018.83 1018.80 1018.75 1018.70 1018.65 1018.60 1018.54 1018.46 1018.35 1018.21 1018.02 1017.80 1017.56 1017.31
1011.48 1011.97 1012.40 1012.75 1013.02 1013.22 1013.38 1013.52 1013.67 1013.84 1014.06 1014.31 1014.59 1014.89 1015.19 1015.48 1015.76 1016.02 1016.28 1016.55 1016.82 1017.09 1017.37 1017.63 1017.86 1018.05 1018.17 1018.22 1018.22 1018.16 1018.06 1017.95 1017.84 1017.74 1017.66 1017.59 1017.52 1017.44 1017.34 1017.21 1017.05 1016.86 1016.66
1011.21 1011.71 1012.15 1012.49 1012.74 1012.93 1013.07 1013.20 1013.34 1013.51 1013.72 1013.97 1014.25 1014.54 1014.82 1015.10 1015.35 1015.60 1015.84 1016.08 1016.34 1016.60 1016.86 1017.10 1017.31 1017.47 1017.56 1017.58 1017.53 1017.41 1017.26 1017.08 1016.91 1016.76 1016.63 1016.54 1016.46 1016.40 1016.34 1016.26 1016.17 1016.04 1015.90
1011.03 1011.53 1011.95 1012.27 1012.50 1012.66 1012.78 1012.90 1013.04 1013.21 1013.42 1013.67 1013.95 1014.23 1014.50 1014.75 1014.99 1015.20 1015.41 1015.62 1015.84 1016.07 1016.31 1016.53 1016.72 1016.86 1016.92 1016.91 1016.82 1016.67 1016.46 1016.23 1016.00 1015.79 1015.62 1015.49 1015.40 1015.35 1015.31 1015.27 1015.22 1015.16 1015.06
1011.00 1011.48 1011.85 1012.13 1012.32 1012.45 1012.55 1012.65 1012.78 1012.95 1013.17 1013.42 1013.70 1013.97 1014.23 1014.47 1014.67 1014.85 1015.03 1015.20 1015.38 1015.57 1015.78 1015.97 1016.14 1016.26 1016.32 1016.29 1016.18 1016.00 1015.76 1015.49 1015.22 1014.96 1014.74 1014.57 1014.46 1014.39 1014.35 1014.33 1014.30 1014.26 1014.20
1011.15 1011.57 1011.89 1012.11 1012.25 1012.34 1012.40 1012.49 1012.61 1012.78 1013.00 1013.25 1013.53 1013.80 1014.04 1014.26 1014.43 1014.58 1014.72 1014.85 1014.99 1015.15 1015.32 1015.49 1015.64 1015.75 1015.80 1015.77 1015.66 1015.47 1015.21 1014.92 1014.62 1014.32 1014.06 1013.85 1013.70 1013.59 1013.53 1013.49 1013.46 1013.42 1013.36
1011.49 1011.83 1012.08 1012.23 1012.31 1012.35 1012.39 1012.45 1012.56 1012.72 1012.93 1013.19 1013.45 1013.72 1013.95 1014.14 1014.29 1014.41 1014.51 1014.60 1014.71 1014.83 1014.97 1015.11 1015.24 1015.35 1015.39 1015.37 1015.26 1015.08 1014.83 1014.53 1014.21 1013.89 1013.59 1013.34 1013.13 1012.98 1012.87 1012.79 1012.72 1012.66 1012.57
1011.99 1012.25 1012.42 1012.51 1012.53 1012.52 1012.53 1012.56 1012.65 1012.80 1013.00 1013.24 1013.49 1013.74 1013.95 1014.13 1014.25 1014.35 1014.42 1014.48 1014.55 1014.64 1014.74 1014.86 1014.97 1015.06 1015.10 1015.07 1014.97 1014.79 1014.55 1014.25 1013.92 1013.58 1013.26 1012.96 1012.71 1012.50 1012.32 1012.18 1012.06 1011.94 1011.82
1012.61 1012.79 1012.88 1012.91 1012.88 1012.84 1012.81 1012.82 1012.88 1013.01 1013.18 1013.40 1013.63 1013.84 1014.04 1014.19 1014.30 1014.37 1014.42 1014.46 1014.50 1014.56 1014.63 1014.72 1014.79 1014.85 1014.87 1014.83 1014.72 1014.54 1014.30 1014.00 1013.66 1013.31 1012.96 1012.63 1012.32 1012.05 1011.82 1011.61 1011.42 1011.25 1011.07
1013.24 1013.36 1013.40 1013.39 1013.33 1013.26 1013.21 1013.19 1013.22 1013.31 1013.45 1013.62 1013.81 1014.00 1014.16 1014.29 1014.38 1014.44 1014.48 1014.50 1014.53 1014.56 1014.59 1014.63 1014.67 1014.68 1014.65 1014.57 1014.44 1014.24 1013.98 1013.67 1013.32 1012.95 1012.58 1012.22 1011.88 1011.56 1011.26 1011.00 1010.75 1010.52 1010.30
1013.81 1013.89 1013.90 1013.86 1013.79 1013.70 1013.63 1013.59 1013.59 1013.64 1013.73 1013.85 1013.99 1014.13 1014.26 1014.37 1014.45 1014.50 1014.54 1014.55 1014.57 1014.57 1014.57 1014.57 1014.54 1014.49 1014.40 1014.26 1014.07 1013.82 1013.53 1013.19 1012.83 1012.45 1012.06 1011.68 1011.31 1010.95 1010.62 1010.31 1010.02 1009.74 1009.49
1014.23 1014.28 1014.28 1014.24 1014.17 1014.09 1014.01 1013.94 1013.91 1013.91 1013.94 1014.00 1014.08 1014.17 1014.27 1014.35 1014.43 1014.48 1014.53 1014.55 1014.56 1014.56 1014.53 1014.47 1014.38 1014.26 1014.08 1013.87 1013.60 1013.29 1012.95 1012.58 1012.19 1011.79 1011.39 1010.99 1010.61 1010.24 1009.89 1009.55 1009.24 1008.94 1008.67
1014.45 1014.49 1014.49 1014.46 1014.40 1014.33 1014.24 1014.16 1014.09 1014.03 1014.01 1014.00 1014.03 1014.07 1014.13 1014.20 1014.28 1014.35 1014.42 1014.47 1014.49 1014.48 1014.43 1014.33 1014.19 1013.99 1013.73 1013.43 1013.08 1012.70 1012.30 1011.88 1011.46 1011.05 1010.64 1010.25 1009.86 1009.50 1009.14 1008.80 1008.48 1008.18 1007.90
1014.46 1014.50 1014.51 1014.50 1014.45 1014.39 1014.30 1014.20 1014.09 1013.99 1013.90 1013.84 1013.81 1013.81 1013.85 1013.91 1014.00 1014.10 1014.20 1014.29 1014.34 1014.35 1014.29 1014.17 1013.98 1013.72 1013.39 1013.01 1012.59 1012.14 1011.68 1011.22 1010.78 1010.35 1009.94 1009.55 1009.18 1008.82 1008.48 1008.15 1007.83 1007.53 1007.26
1014.33 1014.36 1014.37 1014.37 1014.34 1014.27 1014.18 1014.06 1013.92 1013.78 1013.64 1013.53 1013.45 1013.42 1013.45 1013.52 1013.63 1013.76 1013.91 1014.04 1014.14 1014.18 1014.14 1014.01 1013.80 1013.49 1013.11 1012.67 1012.19 1011.69 1011.19 1010.70 1010.24 1009.80 1009.39 1009.02 1008.66 1008.32 1007.99 1007.66 1007.35 1007.06 1006.78
1014.12 1014.13 1014.14 1014.13 1014.10 1014.04 1013.94 1013.81 1013.65 1013.47 1013.29 1013.14 1013.04 1012.99 1013.00 1013.09 1013.23 1013.40 1013.60 1013.78 1013.93 1014.00 1013.99 1013.88 1013.66 1013.34 1012.94 1012.47 1011.95 1011.42 1010.90 1010.39 1009.92 1009.48 1009.08 1008.71 1008.37 1008.03 1007.71 1007.39 1007.08 1006.77 1006.48
1013.93 1013.91 1013.90 1013.89 1013.85 1013.79 1013.68 1013.53 1013.35 1013.15 1012.95 1012.78 1012.66 1012.60 1012.62 1012.71 1012.88 1013.09 1013.33 1013.56 1013.75 1013.86 1013.88 1013.79 1013.58 1013.27 1012.86 1012.39 1011.87 1011.33 1010.80 1010.30 1009.83 1009.40 1009.01 1008.64 1008.30 1007.97 1007.63 1007.30 1006.97 1006.64 1006.32
1013.87 1013.80 1013.76 1013.73 1013.68 1013.60 1013.49 1013.33 1013.14 1012.93 1012.72 1012.54 1012.41 1012.35 1012.37 1012.48 1012.66 1012.89 1013.15 1013.41 1013.62 1013.76 1013.80 1013.73 1013.54 1013.24 1012.85 1012.39 1011.88 1011.36 1010.85 1010.36 1009.90 1009.48 1009.10 1008.73 1008.38 1008.03 1007.67 1007.31 1006.94 1006.57 1006.21
1013.98 1013.87 1013.80 1013.73 1013.66 1013.57 1013.45 1013.29 1013.10 1012.89 1012.68 1012.50 1012.37 1012.31 1012.33 1012.44 1012.61 1012.84 1013.10 1013.35 1013.56 1013.69 1013.74 1013.67 1013.49 1013.20 1012.83 1012.39 1011.91 1011.42 1010.93 1010.47 1010.03 1009.62 1009.23 1008.85 1008.48 1008.10 1007.70 1007.29 1006.87 1006.45 1006.03
1014.30 1014.15 1014.03 1013.93 1013.84 1013.73 1013.60 1013.44 1013.26 1013.06 1012.86 1012.69 1012.57 1012.50 1012.52 1012.60 1012.75 1012.95 1013.17 1013.38 1013.54 1013.64 1013.66 1013.57 1013.38 1013.10 1012.74 1012.32 1011.87 1011.40 1010.95 1010.50 1010.08 1009.68 1009.28 1008.89 1008.48 1008.06 1007.61 1007.15 1006.66 1006.18 1005.71
1014.79 1014.60 1014.45 1014.32 1014.20 1014.08 1013.94 1013.78 1013.61 1013.42 1013.24 1013.08 1012.96 1012.89 1012.88 1012.94 1013.04 1013.17 1013.32 1013.46 1013.55 1013.58 1013.53 1013.40 1013.18 1012.89 1012.53 1012.12 1011.69 1011.25 1010.82 1010.40 1009.99 1009.58 1009.17 1008.75 1008.31 1007.84 1007.34 1006.81 1006.28 1005.74 1005.22
1015.42 1015.19 1015.00 1014.84 1014.70 1014.56 1014.41 1014.25 1014.09 1013.92 1013.75 1013.60 1013.48 1013.41 1013.37 1013.38 1013.42 1013.48 1013.53 1013.57 1013.57 1013.50 1013.38 1013.17 1012.91 1012.58 1012.21 1011.80 1011.39 1010.97 1010.55 1010.14 1009.73 1009.32 1008.89 1008.44 1007.96 1007.44 1006.89 1006.31 1005.73 1005.15 1004.60
Thickness
5728 5726 5725 5724 5722 5722 5721 5720 5720 5719 5719 5718 5717 5716 5714 5713 5711 5710 5709 5708 5706 5705 5704 5703 5702 5701 5699 5697 5695 5693 5691 5689 5686 5687 5687 5688 5687 5688 5687 5686 5685 5684 5684
5730 5728 5726 5725 5723 5722 5721 5721 5720 5719 5718 5717 5716 5714 5713 5711 5710 5708 5707 5705 5704 5702 5701 5699 5698 5697 5694 5693 5691 5689 5687 5685 5683 5681 5682 5682 5682 5682 5682 5681 5681 5681 5680
5731 5729 5727 5725 5723 5722 5721 5721 5720 5718 5716 5715 5714 5712 5711 5710 5708 5707 5705 5703 5702 5700 5698 5696 5694 5692 5690 5688 5686 5684 5683 5681 5678 5677 5677 5676 5676 5676 5675 5676 5676 5675 5675
5731 5729 5726 5725 5724 5723 5722 5720 5719 5717 5715 5713 5711 5711 5710 5708 5706 5704 5702 5700 5698 5697 5695 5693 5691 5689 5687 5685 5682 5680 5678 5675 5673 5671 5671 5670 5669 5669 5668 5668 5669 5670 5670
5732 5729 5727 5725 5723 5721 5719 5717 5716 5714 5713 5711 5709 5708 5706 5705 5704 5701 5698 5696 5694 5692 5691 5689 5688 5686 5684 5681 5679 5676 5673 5670 5668 5666 5665 5664 5664 5662 5661 5661 5661 5662 5663
5732 5729 5727 5725 5722 5720 5718 5716 5713 5711 5710 5707 5706 5704 5702 5702 5701 5698 5695 5693 5690 5688 5686 5684 5682 5680 5679 5677 5675 5673 5670 5666 5663 5660 5660 5658 5659 5657 5656 5654 5653 5652 5654
5730 5728 5726 5724 5721 5719 5716 5713 5710 5708 5706 5703 5702 5700 5699 5697 5696 5693 5690 5688 5686 5683 5681 5678 5677 5676 5673 5671 5669 5666 5664 5662 5659 5656 5654 5654 5653 5652 5649 5647 5646 5645 5646
5727 5725 5723 5721 5718 5715 5712 5709 5707 5704 5702 5699 5698 5696 5694 5693 5690 5688 5685 5682 5680 5677 5675 5673 5670 5668 5666 5663 5661 5659 5658 5656 5653 5650 5649 5649 5648 5645 5642 5641 5639 5638 5639
5723 5721 5719 5717 5713 5710 5707 5705 5703 5700 5696 5694 5693 5690 5688 5687 5684 5682 5678 5674 5672 5670 5668 5666 5663 5661 5658 5654 5652 5650 5649 5648 5646 5644 5642 5640 5639 5636 5633 5630 5628 5626 5630
5717 5715 5712 5710 5707 5704 5702 5700 5697 5694 5690 5688 5686 5684 5682 5680 5677 5674 5671 5667 5664 5662 5659 5657 5655 5652 5649 5645 5642 5641 5639 5640 5637 5635 5633 5631 5629 5627 5624 5621 5620 5618 5619
5709 5706 5704 5702 5701 5698 5694 5692 5689 5686 5683 5680 5677 5676 5674 5671 5668 5665 5662 5659 5656 5653 5650 5648 5646 5643 5639 5635 5632 5631 5630 5628 5625 5623 5622 5621 5619 5618 5616 5613 5610 5608 5608
5699 5697 5694 5693 5692 5689 5686 5683 5680 5677 5674 5671 5669 5666 5664 5662 5659 5656 5652 5649 5647 5643 5641 5639 5636 5632 5628 5625 5622 5621 5618 5615 5613 5611 5610 5609 5607 5607 5606 5604 5601 5599 5598
5687 5686 5684 5682 5680 5679 5676 5673 5670 5667 5664 5661 5658 5656 5654 5651 5649 5646 5643 5639 5636 5633 5631 5628 5624 5621 5618 5615 5612 5609 5605 5603 5600 5598 5598 5597 5596 5594 5593 5591 5590 5588 5588
5676 5674 5672 5670 5668 5667 5665 5662 5659 5656 5653 5651 5648 5645 5643 5640 5637 5635 5632 5628 5624 5621 5617 5614 5611 5608 5605 5603 5600 5597 5594 5590 5588 5586 5585 5584 5582 5580 5579 5577 5576 5576 5576
5663 5660 5658 5657 5655 5653 5651 5649 5647 5645 5643 5639 5636 5634 5631 5628 5626 5622 5619 5616 5612 5608 5604 5600 5598 5595 5593 5590 5587 5584 5581 5577 5574 5573 5570 5569 5567 5566 5565 5563 5561 5560 5560
5649 5646 5644 5643 5641 5639 5637 5635 5633 5631 5629 5627 5624 5621 5619 5615 5612 5609 5605 5602 5598 5594 5590 5588 5585 5582 5579 5577 5574 5571 5568 5564 5561 5559 5556 5554 5553 5552 5551 5550 5548 5547 5547
5636 5634 5632 5630 5628 5625 5624 5622 5619 5617 5615 5612 5609 5606 5603 5600 5598 5594 5591 5586 5582 5578 5575 5573 5570 5568 5565 5562 5559 5556 5553 5551 5547 5544 5542 5541 5539 5538 5537 5537 5535 5534 5535
5622 5621 5618 5616 5614 5611 5609 5606 5604 5601 5598 5595 5592 5589 5587 5585 5582 5578 5574 5570 5566 5562 5560 5557 5555 5552 5549 5546 5543 5541 5539 5536 5533 5531 5529 5527 5525 5524 5524 5523 5523 5522 5523
5609 5607 5604 5602 5599 5597 5594 5591 5588 5584 5581 5578 5576 5574 5571 5568 5565 5561 5557 5554 5552 5549 5545 5542 5539 5537 5534 5532 5529 5527 5524 5522 5519 5517 5515 5514 5512 5511 5511 5511 5511 5511 5510
5594 5594 5591 5588 5585 5582 5578 5575 5572 5569 5565 5562 5559 5556 5554 5552 5549 5545 5541 5538 5535 5533 5530 5528 5525 5523 5521 5518 5516 5513 5511 5509 5507 5505 5504 5502 5501 5500 5500 5501 5502 5503 5504
5580 5578 5576 5572 5569 5565 5562 5559 5556 5553 5550 5546 5543 5540 5537 5535 5533 5530 5527 5523 5520 5518 5515 5513 5511 5509 5507 5505 5503 5501 5499 5498 5497 5495 5494 5493 5492 5492 5492 5493 5494 5495 5497
5567 5564 5560 5557 5554 5550 5547 5544 5540 5537 5534 5531 5529 5526 5522 5520 5518 5515 5512 5510 5507 5504 5501 5499 5498 5496 5494 5493 5492 5491 5490 5489 5488 5487 5487 5486 5485 5485 5486 5487 5488 5489 5491
5552 5549 5545 5542 5538 5535 5532 5528 5525 5523 5520 5517 5514 5512 5510 5507 5504 5502 5499 5497 5494 5492 5490 5488 5486 5486 5484 5483 5482 5481 5481 5481 5480 5479 5479 5479 5479 5480 5481 5482 5483 5484 5487
5538 5534 5531 5527 5524 5521 5518 5514 5511 5509 5506 5504 5501 5499 5496 5493 5491 5489 5487 5485 5483 5482 5480 5478 5477 5476 5475 5474 5474 5474 5474 5473 5472 5472 5472 5473 5474 5475 5476 5478 5480 5481 5483
5523 5520 5517 5513 5510 5507 5505 5502 5499 5496 5493 5491 5489 5486 5484 5482 5480 5478 5476 5474 5473 5472 5471 5470 5468 5468 5468 5467 5467 5468 5468 5467 5466 5466 5466 5468 5470 5471 5473 5475 5477 5479 5482
5508 5506 5503 5500 5497 5495 5492 5489 5487 5484 5481 5479 5476 5474 5472 5470 5469 5467 5466 5465 5464 5464 5463 5463 5462 5462 5461 5462 5462 5462 5463 5463 5463 5463 5462 5465 5467 5469 5471 5473 5476 5478 5481